Location: Columbus
(35.2256°N, 82.1549°W)
Time: 22:03:07
(UTC-05:00)

ISS - Pass Details

Date: 04 December 2021
Orbit: 413 x 422 km, 51.6° (Epoch: 27 January)

Event Time Altitude Azimuth Distance (km) Brightness Sun altitude
Rises 18:00:46 0° 327° (NNW) 2,381 0.2 -9.2°
Reaches altitude 10° 18:04:00 10° 0° (N) 1,510 -1.1 -9.8°
Maximum altitude 18:05:24 12° 25° (NNE) 1,390 -1.5 -10.0°
Enters shadow 18:06:10 11° 38° (NE) 1,425 -1.6 -10.2°
